Location: Dessau
(51.7984°N, 12.2168°E)
Time: 04:20:27
(UTC+01:00)

OTV 5 (USA 277) - Visible Passes

Search period start: 21 February 2018 00:00
Search period end: 03 March 2018 00:00
Orbit: 404 x 417 km, 43.0° (Epoch: 07 September)

Date Brightness Start Highest point End Pass type
(mag) Time Alt. Az. Time Alt. Az. Time Alt. Az.
23 Feb ? 05:53:46 10° S 05:55:18 13° SSE 05:56:49 10° SE visible
24 Feb ? 05:03:56 10° SSE 05:04:28 10° SSE 05:04:58 10° SSE visible
25 Feb ? 05:47:54 10° SSW 05:50:04 16° S 05:52:15 10° SE visible
26 Feb ? 04:59:06 15° S 04:59:12 15° SSE 05:01:08 10° SE visible
27 Feb ? 05:43:07 13° SW 05:44:53 18° S 05:47:13 10° SE visible
28 Feb ? 04:54:23 17° SSE 04:54:23 17° SSE 04:56:18 10° SE visible
01 Mar ? 05:38:23 13° SW 05:39:43 16° S 05:41:52 10° SSE visible
02 Mar ? 04:49:40 16° SSE 04:49:40 16° SSE 04:51:07 10° SE visible
